Snowfall_Accumulation
0.0 0.0 0.0 0.0 0.0 0.0 0.0 0.0 0.0 0.0 0.0 0.0 0.0 0.0 0.0 0.0 0.0 0.0 0.0 0.0 0.0 0.0 0.0 0.0 0.0 0.0 0.0 0.0 0.0 0.0 0.0 0.0 0.0 0.0 0.0 0.0 0.0 0.0 0.0 0.0 0.0 0.0 0.0 0.0 0.0 0.0 0.0
0.0 0.0 0.0 0.0 0.0 0.0 0.0 0.0 0.0 0.0 0.0 0.0 0.0 0.0 0.0 0.0 0.0 0.0 0.0 0.0 0.0 0.0 0.0 0.0 0.0 0.0 0.0 0.0 0.0 0.0 0.0 0.0 0.0 0.0 0.0 0.0 0.0 0.0 0.0 0.0 0.0 0.0 0.0 0.0 0.0 0.0 0.0
0.0 0.0 0.0 0.0 0.0 0.0 0.0 0.0 0.0 0.0 0.0 0.0 0.0 0.0 0.0 0.0 0.0 0.0 0.0 0.0 0.0 0.0 0.0 0.0 0.0 0.0 0.0 0.0 0.0 0.0 0.0 0.0 0.0 0.0 0.0 0.0 0.0 0.0 0.0 0.0 0.0 0.0 0.0 0.0 0.0 0.0 0.0
0.0 0.0 0.0 0.0 0.0 0.0 0.0 0.0 0.0 0.0 0.0 0.0 0.0 0.0 0.0 0.0 0.0 0.0 0.0 0.0 0.0 0.0 0.0 0.0 0.0 0.0 0.0 0.0 0.0 0.0 0.0 0.0 0.0 0.0 0.0 0.0 0.0 0.0 0.0 0.0 0.0 0.0 0.0 0.0 0.0 0.0 0.0
0.0 0.0 0.0 0.0 0.0 0.0 0.0 0.0 0.0 0.0 0.0 0.0 0.0 0.0 0.0 0.0 0.0 0.0 0.0 0.0 0.0 0.0 0.0 0.0 0.0 0.0 0.0 0.0 0.0 0.0 0.0 0.0 0.0 0.0 0.0 0.0 0.0 0.0 0.0 0.0 0.0 0.0 0.0 0.0 0.0 0.0 0.0
0.0 0.0 0.0 0.0 0.0 0.0 0.0 0.0 0.0 0.0 0.0 0.0 0.0 0.0 0.0 0.0 0.0 0.0 0.0 0.0 0.0 0.0 0.0 0.0 0.0 0.1 0.0 0.0 0.0 0.0 0.0 0.0 0.0 0.0 0.0 0.0 0.0 0.0 0.0 0.0 0.0 0.0 0.0 0.0 0.0 0.0 0.0
0.0 0.0 0.0 0.0 0.0 0.0 0.0 0.0 0.0 0.0 0.0 0.0 0.0 0.0 0.0 0.0 0.0 0.0 0.0 0.0 0.0 0.0 0.0 0.0 0.0 0.0 0.0 0.0 0.0 0.0 0.0 0.0 0.0 0.0 0.0 0.0 0.0 0.0 0.0 0.0 0.0 0.0 0.0 0.0 0.0 0.0 0.0
0.0 0.0 0.0 0.0 0.0 0.0 0.0 0.0 0.0 0.0 0.0 0.0 0.0 0.0 0.0 0.0 0.0 0.0 0.0 0.0 0.0 0.0 0.0 0.0 0.0 0.0 0.0 0.0 0.0 0.0 0.0 0.0 0.0 0.0 0.0 0.0 0.0 0.0 0.0 0.0 0.0 0.0 0.0 0.0 0.0 0.0 0.0
0.0 0.0 0.0 0.0 0.0 0.0 0.0 0.0 0.0 0.0 0.0 0.0 0.0 0.0 0.0 0.0 0.0 0.0 0.0 0.0 0.0 0.0 0.2 0.0 0.0 0.0 0.0 0.0 0.0 0.0 0.0 0.0 0.0 1.3 0.0 0.0 0.0 0.0 0.0 0.0 0.0 0.0 0.0 0.0 0.0 0.0 0.0
0.0 0.0 0.0 0.0 0.0 0.0 0.0 0.0 0.0 0.0 0.0 0.0 0.0 0.0 0.0 0.0 0.0 0.0 0.0 0.0 0.0 0.0 2.8 0.0 0.0 0.0 0.0 0.0 0.0 0.0 0.0 0.0 0.0 0.0 0.0 0.0 0.0 0.0 0.0 0.0 0.0 0.0 0.0 0.0 0.0 0.0 0.0
0.0 0.0 0.0 0.0 0.0 0.0 0.0 0.0 0.0 0.0 0.0 0.0 0.0 0.0 0.0 0.0 0.0 0.0 0.0 0.0 0.0 0.0 79.5 0.0 0.0 0.0 0.0 0.0 0.0 0.0 0.0 0.0 0.9 0.0 0.0 0.6 0.0 0.0 0.0 0.0 0.0 0.0 0.0 0.0 0.0 0.0 0.0
0.0 0.0 0.0 0.0 0.0 0.0 0.0 0.0 0.0 0.0 0.0 0.0 0.0 0.0 0.0 0.0 0.0 0.0 0.0 0.0 0.0 32.1 73.9 0.0 0.0 0.0 0.0 0.0 0.0 0.0 0.0 0.0 0.0 0.0 0.0 2.1 0.0 0.0 0.0 0.0 0.0 0.0 0.0 0.0 0.0 0.0 0.0
0.0 0.0 0.0 0.0 0.0 0.0 0.0 0.0 0.0 0.0 0.0 0.0 0.0 0.0 0.0 0.0 0.0 0.0 0.0 0.0 36.0 80.3 0.0 0.0 0.0 0.0 0.0 0.0 0.0 0.0 0.0 0.6 2.7 9.3 5.9 0.0 0.0 0.0 0.0 0.0 0.0 0.0 0.0 1.5 0.9 0.2 0.3
0.0 0.0 0.0 0.0 0.0 0.0 0.0 0.0 0.0 0.0 0.0 0.0 0.0 0.0 0.0 0.0 0.0 0.0 0.0 11.8 88.5 1.2 0.0 0.0 0.0 0.0 0.2 0.0 0.0 0.5 0.6 1.9 0.2 0.6 2.9 2.8 2.9 0.0 0.0 0.0 0.0 0.0 0.0 1.7 7.1 1.0 0.0
0.0 0.0 0.0 0.0 0.0 0.0 0.0 0.0 0.0 0.0 0.0 0.0 0.0 0.0 0.0 0.0 0.0 0.0 5.1 73.2 30.6 0.0 0.5 0.3 0.0 0.1 0.1 0.0 0.9 1.1 1.9 3.1 2.7 3.0 10.1 5.4 1.7 0.0 0.0 0.0 0.0 0.5 0.3 0.0 3.7 0.4 0.5
0.0 0.0 0.0 0.0 0.0 0.0 0.0 0.0 0.0 0.0 0.0 0.0 0.0 0.0 0.0 0.0 0.0 0.0 21.1 31.1 3.3 0.0 0.0 0.0 0.7 0.3 0.2 0.2 0.5 2.0 7.0 3.8 2.9 2.8 5.6 3.4 5.0 0.0 0.0 0.0 0.0 0.0 0.0 1.6 2.3 14.1 4.5
0.0 0.0 0.0 0.0 0.0 0.0 0.0 0.0 0.0 0.0 0.0 0.0 0.0 3.0 0.0 0.0 0.0 7.4 64.9 12.8 1.1 0.0 0.0 0.1 0.0 0.0 0.1 0.3 0.3 2.2 4.4 1.7 1.3 2.1 0.8 5.7 6.7 0.1 0.0 0.7 0.4 0.7 2.0 1.1 3.1 4.2 9.4
0.0 0.0 0.0 0.0 0.0 0.0 0.0 0.0 0.0 0.0 0.0 0.0 0.0 24.3 0.0 0.0 23.7 27.1 30.9 1.3 0.0 0.0 0.0 0.0 0.0 0.0 0.2 0.5 1.3 3.0 4.8 0.5 0.0 0.2 3.8 4.9 11.3 3.7 0.5 0.0 0.0 0.0 0.2 0.5 22.3 15.4 7.4
0.0 0.0 0.0 0.0 0.0 0.0 0.0 0.0 0.0 0.0 0.0 0.0 6.6 8.0 0.0 0.0 44.4 29.1 0.8 0.4 0.1 0.1 0.0 0.1 0.3 0.1 0.0 0.0 1.5 0.2 0.0 0.0 0.0 0.0 2.5 2.1 7.2 12.0 0.9 0.0 1.2 2.1 4.2 6.9 5.8 5.2 8.6
0.0 0.0 0.0 0.0 0.0 0.0 0.0 0.0 0.0 0.0 0.0 0.0 5.3 63.3 13.1 0.0 1.0 5.1 7.4 5.2 4.0 0.4 0.1 0.0 0.5 0.4 0.3 1.8 0.3 0.2 0.1 0.0 0.0 0.0 0.0 0.0 6.4 11.9 15.3 10.3 7.5 11.3 6.3 7.7 8.8 19.0 5.6
0.0 0.0 0.0 0.0 0.0 0.0 0.0 0.0 0.0 0.0 0.0 0.0 13.1 36.9 0.3 44.3 31.2 5.2 3.3 3.4 2.5 2.7 0.0 0.1 0.9 0.2 1.7 3.4 2.5 1.8 0.3 0.2 0.0 0.0 0.0 1.5 13.7 8.8 5.5 2.0 1.1 2.5 2.6 2.6 10.4 6.2 7.9
0.0 0.0 0.0 0.0 0.0 0.0 0.0 0.0 0.0 0.0 0.0 0.0 48.3 23.3 1.7 3.0 0.7 3.2 4.0 6.8 2.0 0.5 1.7 1.3 2.4 1.0 1.1 4.5 2.2 4.8 1.7 0.1 0.6 0.0 0.0 1.0 9.4 4.6 5.2 0.9 0.5 1.2 0.7 2.6 3.3 2.3 0.5
0.0 0.0 0.0 0.0 0.0 0.0 0.0 0.0 0.0 0.0 0.0 10.0 1.6 0.0 4.5 5.1 4.6 10.5 5.7 1.9 1.2 0.2 0.0 0.0 0.0 1.0 2.2 1.2 0.3 0.7 0.6 0.6 0.0 2.2 2.6 7.2 11.8 12.1 11.8 1.6 3.8 14.4 2.7 1.7 7.7 2.3 2.6
0.0 0.0 0.0 0.0 0.0 0.0 0.0 0.0 0.0 0.0 0.0 1.9 0.0 0.2 16.4 26.1 5.9 2.9 0.2 0.4 0.3 0.1 1.3 0.1 0.0 0.6 0.3 0.0 0.0 0.5 0.7 0.5 0.2 0.1 0.8 6.1 8.7 11.5 17.1 6.4 31.8 2.9 0.0 0.0 0.6 2.9 2.6
0.0 0.0 0.0 0.0 0.0 0.0 0.0 0.0 0.0 0.0 0.0 0.0 0.0 0.5 12.5 24.5 3.7 2.2 1.1 0.7 1.0 0.0 1.4 1.1 0.7 0.0 0.0 0.1 9.9 20.1 15.4 11.2 4.9 1.3 0.3 0.1 4.0 17.6 25.2 12.4 3.8 1.0 0.1 0.0 0.3 1.6 0.2
0.0 0.0 0.0 0.0 0.0 0.0 0.0 0.0 0.0 0.0 0.0 0.0 0.0 0.0 6.2 20.7 7.8 0.2 3.4 1.3 4.7 5.4 6.9 3.1 0.0 0.0 0.0 9.3 29.8 30.1 19.6 7.4 9.8 2.6 0.4 0.2 0.2 8.7 16.3 22.8 13.1 1.0 0.0 0.0 0.0 4.1 0.3
0.0 0.0 0.0 0.0 0.0 0.0 0.0 0.0 0.0 0.0 0.0 0.0 0.0 0.0 1.3 26.6 1.1 0.2 3.6 3.6 1.7 3.3 6.8 3.6 4.4 4.5 2.4 22.9 33.9 19.4 11.0 1.2 8.0 7.9 6.7 8.1 8.1 25.0 14.9 15.2 2.7 0.3 0.0 0.0 3.8 4.0 0.7
0.0 0.0 0.0 0.0 0.0 0.0 0.0 0.0 0.0 0.0 0.0 0.0 0.0 0.0 0.2 16.4 5.0 0.0 0.0 1.8 4.1 5.1 16.8 8.5 11.9 12.8 20.6 37.1 26.8 19.5 11.8 1.7 4.5 2.5 2.4 3.6 13.8 20.6 21.0 31.0 19.4 0.1 0.0 1.0 0.7 0.1 0.6
0.0 0.0 0.0 0.0 0.0 0.0 0.0 0.0 0.0 0.0 0.0 0.0 0.5 0.0 0.0 11.4 10.8 0.0 0.0 0.0 0.0 0.0 3.6 8.1 12.3 8.0 7.9 22.4 15.7 11.5 15.0 10.3 2.8 9.2 2.5 8.9 3.9 9.7 8.5 10.7 1.0 0.0 0.3 0.2 0.2 0.4 1.1